Location: Peterborough
(44.3091°N, 78.3197°W)
Time: 01:04:14
(UTC-04:00)

SR - Pass Details

Date: 25 March 2023
Orbit: 581 x 867 km, 66.7° (Epoch: 02 June)

Event Time Altitude Azimuth Distance (km) Brightness Sun altitude
Rises 12:39:03 0° 322° (NW) 2,817 ? 46.7°
Reaches altitude 10° 12:41:18 10° 316° (NW) 1,927 ? 46.8°
Maximum altitude 12:45:25 45° 244° (WSW) 831 ? 46.9°
Drops below altitude 10° 12:49:43 10° 172° (S) 2,019 ? 47.1°
Sets 12:52:08 0° 166° (SSE) 2,967 ? 47.2°
